Evanston, WY

7:22 AM MST on February 22, 2017 (GMT -0700)
Evanston-Uinta County Burns

Weather History for KEVW - April, 2014

Change the Weather History Date:

Wednesday, April 23, 2014

  Actual Average Record
Temperature  
Mean Temperature 34 °F 42 °F  
Max Temperature 41 °F 52 °F 77 °F (2012)
Min Temperature 26 °F 31 °F 18 °F (2013)
Degree Days  
Heating Degree Days 31 24  
Month to date heating degree days 549 614  
Since 1 July heating degree days 7151 7682  
Cooling Degree Days 0 0  
Month to date cooling degree days 0 0  
Year to date cooling degree days 0 0  
Moisture  
Dew Point 24 °F    
Average Humidity 67    
Maximum Humidity 100    
Minimum Humidity 33    
Precipitation  
Precipitation 0.01 in 0.03 in 0.05 in (2015)
Month to date precipitation 0.22 0.81  
Year to date precipitation 0.33 2.82  
Sea Level Pressure  
Sea Level Pressure 29.87 in    
Wind  
Wind Speed 17 mph (WSW)    
Max Wind Speed 23 mph    
Max Gust Speed 36 mph    
Visibility 7 miles    
Events Snow    
T = Trace of Precipitation, MM = Missing Value Source: NWS Daily Summary

Daily Weather History Graph

Daily Weather History Graph

Search for Another Location

Airport or City:

Trip Planner

Search our weather history database for the weather conditions in past years. The results will help you decide how hot, cold, wet, or windy it might be!

Date:

Astronomy

Apr. 23, 2014 Rise Set
Actual Time 6:32 AM MDT 8:12 PM MDT
Civil Twilight 6:03 AM MDT 8:42 PM MDT
Nautical Twilight 5:27 AM MDT 9:17 PM MDT
Astronomical Twilight 4:50 AM MDT 9:55 PM MDT
Moon 3:10 AM MDT (4/23) 2:21 PM MDT (4/23)
Length of Visible Light 14h 39m
Length of Day
13h 40m
Waning Crescent, 34% of the Moon is Illuminated
Apr 23
Waning Crescent
Apr 29
New
May 6
First Quarter
May 14
Full
May 21
Last Quarter

Hourly Weather History & Observations

Time (MDT) Temp. Windchill Dew Point Humidity Pressure Visibility Wind Dir Wind Speed Gust Speed Precip Events Conditions
12:04 AM 33.1 °F 24.9 °F 30.9 °F 92% 29.82 in 10.0 mi SW 10.4 mph - N/A   Overcast
12:09 AM 33.1 °F 24.4 °F 30.9 °F 92% 29.82 in 8.0 mi SW 11.5 mph - 0.00 in Snow Light Snow
12:21 AM 32.0 °F 22.5 °F 30.9 °F 96% 29.82 in 2.5 mi WSW 12.7 mph - 0.00 in Snow Light Snow
12:28 AM 32.0 °F 22.5 °F 30.9 °F 96% 29.83 in 1.5 mi SW 12.7 mph - 0.00 in Snow Light Snow
12:33 AM 32.0 °F 23.0 °F 30.9 °F 96% 29.83 in 2.0 mi SW 11.5 mph - 0.00 in Snow Light Snow
12:37 AM 32.0 °F 22.1 °F 30.9 °F 96% 29.83 in 3.0 mi SW 13.8 mph - 0.00 in Snow Light Snow
12:48 AM 32.0 °F 23.0 °F 30.2 °F 93% 29.82 in 9.0 mi SW 11.5 mph - 0.00 in   Overcast
12:53 AM 32.0 °F 23.0 °F 30.0 °F 92% 29.67 in 10.0 mi SW 11.5 mph - 0.00 in   Overcast
1:05 AM 32.0 °F 21.6 °F 30.0 °F 92% 29.82 in 10.0 mi SW 15.0 mph - N/A   Overcast
1:35 AM 30.9 °F 19.1 °F 30.0 °F 96% 29.83 in 9.0 mi SW 18.4 mph - N/A   Overcast
1:53 AM 30.9 °F 19.4 °F 30.0 °F 96% 29.67 in 10.0 mi SW 17.3 mph - N/A   Overcast
2:26 AM 30.9 °F 19.8 °F 28.0 °F 89% 29.81 in 10.0 mi SW 16.1 mph - N/A   Overcast
2:53 AM 30.0 °F 18.3 °F 28.0 °F 92% 29.66 in 10.0 mi SW 17.3 mph - N/A   Overcast
3:07 AM 30.0 °F 19.5 °F 28.0 °F 92% 29.81 in 10.0 mi SW 13.8 mph - N/A   Overcast
3:26 AM 30.0 °F 18.3 °F 28.9 °F 96% 29.81 in 1.8 mi SW 17.3 mph - 0.00 in Snow Light Snow
3:32 AM 30.0 °F 18.7 °F 28.9 °F 96% 29.81 in 0.8 mi SW 16.1 mph - 0.00 in Snow Light Snow
3:34 AM 30.0 °F 18.3 °F 28.9 °F 96% 29.81 in 1.0 mi SW 17.3 mph - 0.00 in Snow Light Snow
3:41 AM 30.0 °F 19.1 °F 28.9 °F 96% 29.81 in 2.0 mi SW 15.0 mph - 0.00 in Snow Light Snow
3:49 AM 30.2 °F 18.1 °F 28.4 °F 93% 29.81 in 5.0 mi SW 18.4 mph 24.2 mph 0.00 in Snow Light Snow
3:53 AM 30.0 °F 17.5 °F 28.9 °F 96% 29.66 in 8.0 mi SW 19.6 mph - 0.00 in Snow Light Snow
4:20 AM 30.0 °F 19.1 °F 28.0 °F 92% 29.83 in 9.0 mi WSW 15.0 mph - 0.00 in   Overcast
4:29 AM 30.0 °F 19.5 °F 28.0 °F 92% 29.84 in 5.0 mi NW 13.8 mph - 0.00 in Snow Light Snow
4:39 AM 28.0 °F 15.3 °F 26.1 °F 92% 29.85 in 4.0 mi WNW 18.4 mph 24.2 mph 0.00 in Snow Light Snow
4:48 AM 28.4 °F 17.5 °F 26.6 °F 93% 29.85 in 2.0 mi WNW 13.8 mph - 0.00 in Snow Light Snow
4:53 AM 28.0 °F 16.5 °F 26.1 °F 92% 29.71 in 1.8 mi WNW 15.0 mph - 0.00 in Snow Light Snow
4:55 AM 28.0 °F 17.0 °F 26.1 °F 92% 29.85 in 1.2 mi WNW 13.8 mph - 0.00 in Snow Light Snow
5:08 AM 28.0 °F 18.1 °F 26.1 °F 92% 29.86 in 1.8 mi WNW 11.5 mph - 0.01 in Snow Light Snow
5:11 AM 28.0 °F 18.6 °F 26.1 °F 92% 29.86 in 3.0 mi WNW 10.4 mph - 0.01 in Snow Light Snow
5:31 AM 28.0 °F 16.1 °F 26.1 °F 92% 29.87 in 5.0 mi West 16.1 mph - 0.01 in Snow Light Snow
5:53 AM 27.0 °F 16.7 °F 24.1 °F 89% 29.77 in 10.0 mi WSW 11.5 mph - 0.01 in   Mostly Cloudy
6:53 AM 26.1 °F 12.7 °F 21.0 °F 81% 29.83 in 10.0 mi WSW 18.4 mph - N/A   Scattered Clouds
7:53 AM 28.0 °F 17.0 °F 21.9 °F 78% 29.86 in 9.0 mi West 13.8 mph - 0.00 in   Mostly Cloudy
8:53 AM 30.0 °F 19.1 °F 21.9 °F 72% 29.90 in 10.0 mi West 15.0 mph - N/A   Partly Cloudy
9:53 AM 30.9 °F 19.1 °F 19.0 °F 61% 29.92 in 10.0 mi WSW 18.4 mph 24.2 mph N/A   Mostly Cloudy
11:53 AM 35.1 °F 24.1 °F 17.1 °F 48% 29.97 in 10.0 mi WNW 19.6 mph 28.8 mph N/A   Mostly Cloudy
12:53 PM 37.9 °F 27.9 °F 17.1 °F 43% 29.96 in 10.0 mi WNW 19.6 mph 26.5 mph N/A   Mostly Cloudy
1:53 PM 37.0 °F 27.4 °F 15.1 °F 41% 29.98 in 10.0 mi West 17.3 mph 23.0 mph N/A   Scattered Clouds
2:53 PM 39.9 °F 29.7 °F 16.0 °F 38% 29.97 in 10.0 mi West 23.0 mph 35.7 mph N/A   Scattered Clouds
3:53 PM 39.9 °F 30.5 °F 12.9 °F 33% 29.98 in 10.0 mi West 19.6 mph 32.2 mph N/A   Scattered Clouds
4:53 PM 39.9 °F 31.4 °F 16.0 °F 38% 30.00 in 10.0 mi West 16.1 mph 27.6 mph N/A   Scattered Clouds
5:53 PM 37.9 °F 28.5 °F 14.0 °F 38% 30.02 in 10.0 mi West 17.3 mph - N/A   Scattered Clouds
6:53 PM 37.9 °F 27.9 °F 12.9 °F 36% 30.04 in 10.0 mi West 19.6 mph 25.3 mph N/A   Mostly Cloudy
7:53 PM 35.1 °F 25.5 °F 14.0 °F 42% 30.04 in 10.0 mi West 15.0 mph - N/A   Clear
8:53 PM 30.9 °F 22.2 °F 16.0 °F 54% 30.07 in 10.0 mi WSW 10.4 mph - N/A   Clear
9:53 PM 30.0 °F 21.1 °F 16.0 °F 56% 30.09 in 10.0 mi SW 10.4 mph - N/A   Clear
10:53 PM 27.0 °F 17.3 °F 15.1 °F 61% 30.09 in 10.0 mi WSW 10.4 mph - N/A   Clear
11:53 PM 25.0 °F 14.8 °F 16.0 °F 69% 30.10 in 10.0 mi WSW 10.4 mph - N/A   Clear